Theta_e
319 319 317 313 310 311 312 312 313 315 316 316 317 317 316 315 316 315 313 311 309 309 310 312 313 311 310 311 311 308 311 312 313 313 312 309 309 308 306 305 305 304 305 304 308
318 317 314 311 311 311 311 311 310 312 315 316 317 317 316 315 316 313 311 310 309 309 310 311 310 308 308 311 311 310 310 312 310 310 311 309 308 308 309 307 305 304 303 306 309
318 315 311 311 311 311 310 309 308 311 314 316 317 317 316 315 312 312 311 310 309 309 310 311 310 309 311 309 311 311 311 310 311 309 308 308 308 307 306 308 305 307 305 304 308
317 311 310 311 311 310 308 307 307 312 314 316 317 316 316 314 314 312 311 311 310 310 310 310 309 312 311 311 309 311 309 309 310 310 310 309 308 308 304 310 308 304 303 302 304
315 311 311 310 309 307 306 307 308 312 314 317 316 316 315 311 312 311 313 316 313 310 309 309 310 311 314 310 308 308 308 307 306 306 306 307 307 306 306 306 305 302 301 300 300
314 311 311 308 305 305 306 307 308 311 314 317 315 316 315 313 311 311 314 316 311 309 307 308 309 309 310 309 309 308 307 306 306 307 306 308 307 305 306 305 304 304 303 302 300
312 310 309 306 304 305 306 308 308 311 314 316 315 316 312 314 311 313 316 313 309 308 307 308 308 311 309 310 307 307 307 306 309 309 308 303 308 306 305 304 304 304 305 305 303
312 310 307 303 303 304 306 308 309 311 314 313 315 315 314 312 311 316 316 313 311 309 308 307 308 307 308 306 307 309 308 310 310 308 310 308 314 312 310 309 310 307 304 304 306
313 309 304 303 302 304 306 307 310 310 313 312 315 313 314 312 315 315 314 309 309 309 307 305 306 305 306 308 309 307 312 310 310 310 309 312 314 312 310 308 309 309 306 306 305
313 307 303 302 301 305 305 308 310 311 311 314 313 311 313 314 314 314 311 308 307 306 308 306 304 307 306 309 316 313 310 310 311 310 309 309 311 311 312 310 312 311 306 306 306
311 305 302 300 301 308 307 308 310 308 310 313 311 313 312 313 312 313 309 306 307 307 310 307 309 311 310 310 310 309 310 310 312 311 309 310 312 313 313 313 312 307 311 308 307
309 305 300 300 304 308 309 314 313 311 313 311 312 311 312 311 310 310 308 310 311 311 309 309 310 311 309 309 310 310 310 311 312 310 311 310 312 311 311 311 310 309 307 304 304
308 303 299 300 307 309 311 311 311 310 312 309 311 313 312 307 308 308 305 307 308 310 310 312 308 310 310 311 312 311 311 311 310 311 311 308 309 307 306 307 307 306 304 304 303
307 301 299 301 305 309 311 309 310 309 306 309 315 312 308 306 309 305 304 308 311 312 310 308 309 311 311 311 310 313 310 309 309 310 306 307 309 306 307 307 307 305 304 303 301
307 297 298 303 301 310 309 308 310 305 320 311 315 308 308 311 309 310 304 306 310 310 309 306 310 310 310 309 310 311 307 308 308 304 305 307 308 309 306 307 308 300 297 297 298
304 296 299 304 303 308 306 311 306 312 320 309 313 311 308 307 309 307 307 305 304 306 305 305 304 307 308 308 307 307 306 305 305 304 309 306 306 307 306 307 301 297 296 298 298
297 296 303 304 305 307 307 305 309 317 310 308 312 310 309 308 310 308 309 304 309 310 310 308 308 308 307 305 304 307 305 308 303 302 307 303 301 301 303 305 300 296 297 296 298
296 297 305 306 307 307 308 302 311 314 309 309 312 309 307 307 308 307 306 301 306 308 308 309 304 306 303 305 308 305 307 305 307 301 299 298 301 302 296 296 295 295 295 297 298
297 303 306 307 307 309 298 303 312 306 304 312 306 304 310 310 305 302 305 306 299 300 307 307 306 304 303 303 302 301 307 302 299 296 298 299 299 297 295 294 294 294 295 296 297
301 305 305 307 309 310 299 304 305 300 312 312 306 303 306 310 304 305 304 302 301 297 299 302 303 302 300 299 301 294 294 298 296 294 295 294 292 292 293 294 294 294 294 293 293
305 298 306 310 310 305 301 300 302 307 310 311 309 305 308 307 304 306 302 297 296 295 294 297 299 298 293 294 292 292 293 292 292 293 291 291 291 293 293 294 293 294 292 292 293
305 296 308 311 306 304 305 304 309 311 306 306 307 308 304 302 302 304 305 297 295 295 292 294 293 294 291 292 292 291 291 292 293 292 291 293 293 294 293 293 293 292 291 291 291
303 301 308 311 304 304 309 311 308 306 306 306 305 302 299 299 300 301 299 294 293 292 292 293 294 291 292 292 290 291 291 292 292 293 294 294 292 293 292 292 290 290 290 290 290
303 302 306 308 305 305 308 307 310 303 304 301 299 296 296 297 296 297 296 294 293 293 295 295 295 295 290 291 291 292 292 292 293 294 293 293 292 292 290 289 289 290 290 290 290
303 305 304 312 308 308 307 305 307 305 303 298 296 297 297 296 295 295 294 293 292 293 294 292 292 292 291 291 292 292 293 293 293 292 293 292 290 288 289 289 289 289 290 290 290
302 303 303 305 305 308 308 306 305 303 303 301 299 295 294 295 295 295 293 292 293 292 292 292 292 292 292 292 292 292 292 291 291 290 287 288 289 289 289 289 289 290 290 290 290
300 299 303 303 303 306 306 306 306 304 300 297 296 294 294 294 292 292 292 292 292 293 292 292 293 287 286 291 291 286 289 288 288 287 287 288 288 289 289 290 290 290 290 290 291
Wind_Speed
22 23 25 26 28 30 30 31 31 32 30 27 22 20 22 20 9 10 7 7 10 14 12 10 7 14 4 3 3 3 4 2 4 3 6 3 4 2 2 5 3 7 6 6 4
22 24 25 27 28 30 31 31 32 33 30 25 18 20 24 17 9 13 7 9 11 13 10 11 7 9 4 2 3 4 3 8 6 4 6 4 4 2 4 5 7 7 9 16 6
22 23 25 27 28 30 30 31 32 32 29 25 16 19 27 10 4 4 10 12 12 11 8 3 2 2 4 4 2 1 5 4 5 8 4 4 4 4 3 9 10 9 8 4 5
21 23 25 27 28 30 30 30 31 30 28 24 20 28 14 3 3 4 11 12 12 10 6 4 4 3 3 3 3 4 6 4 7 3 3 4 3 6 8 19 8 9 8 5 7
21 22 24 27 29 30 30 29 29 29 27 24 28 18 5 6 1 7 11 16 12 11 7 3 4 3 2 3 4 3 6 6 9 8 9 5 12 7 10 19 14 8 10 13 10
21 23 24 27 29 31 29 29 29 27 25 23 24 8 4 5 3 6 13 16 11 8 4 4 2 1 2 3 2 3 7 12 11 11 4 5 6 3 8 7 10 8 12 12 9
21 23 25 28 29 29 27 29 30 26 23 23 13 3 5 4 2 6 15 10 7 6 2 2 1 1 1 4 3 4 7 9 6 3 6 4 5 8 13 7 11 13 12 14 10
21 23 26 28 28 28 25 27 27 24 19 23 5 2 2 0 1 7 10 2 7 3 2 2 2 3 1 5 5 5 2 6 7 7 4 8 19 9 7 14 25 12 9 12 14
22 25 26 27 28 26 25 27 22 22 14 13 2 3 2 1 3 8 8 5 7 4 3 3 3 3 3 3 5 7 7 8 11 5 3 1 26 22 14 10 17 15 11 12 15
22 25 26 28 27 23 25 24 18 15 15 3 4 3 4 5 7 9 7 6 2 3 2 7 5 3 4 6 3 7 7 6 10 6 3 14 23 21 24 14 19 16 12 11 11
23 24 27 28 23 17 25 9 10 6 12 2 8 4 5 12 4 3 5 5 2 8 4 4 5 4 5 3 3 4 4 14 19 12 5 8 26 29 27 25 20 7 13 12 15
22 26 28 24 14 13 12 7 3 3 8 3 4 5 7 2 4 3 11 4 6 5 5 7 5 3 1 2 2 4 8 12 16 8 9 5 32 32 23 16 12 11 14 11 12
24 27 25 19 7 9 12 7 2 3 2 6 4 4 4 1 2 5 4 2 5 3 2 2 10 1 2 3 1 4 6 6 7 21 19 7 19 29 31 18 14 10 6 10 12
24 26 20 13 2 8 4 11 3 5 4 4 2 2 2 1 0 2 3 3 3 3 3 6 3 1 3 4 4 3 0 7 9 6 16 9 13 36 21 11 10 10 7 7 9
26 23 14 11 4 3 6 13 0 2 5 4 3 2 5 4 6 4 4 6 1 5 2 8 5 5 5 4 0 6 7 5 6 22 16 16 5 3 12 8 7 15 18 12 18
24 17 11 5 5 1 12 7 1 5 6 3 3 6 5 5 6 9 6 7 1 2 1 7 5 2 4 4 5 5 9 20 10 2 5 4 5 10 11 12 14 21 21 23 21
21 11 8 7 2 9 6 2 4 3 2 3 2 4 2 4 4 5 5 6 3 7 4 5 5 2 6 6 5 12 6 6 5 3 12 7 18 16 7 2 4 18 16 19 8
18 9 7 5 6 6 2 5 4 5 6 3 3 3 4 3 1 5 3 4 6 3 3 4 6 1 3 4 2 5 3 2 6 11 26 22 9 5 18 18 23 21 28 27 12
11 6 6 4 4 1 5 2 7 7 1 2 4 4 2 3 1 3 2 2 3 4 2 6 6 5 10 2 1 5 3 7 6 12 9 7 14 16 10 23 22 25 25 20 23
4 3 4 3 1 4 4 7 6 4 4 3 8 5 5 3 2 2 1 3 4 5 3 1 10 2 2 3 3 6 6 5 2 4 6 16 31 11 22 25 18 29 22 27 23
1 2 3 3 5 4 4 8 5 3 3 6 4 4 5 4 2 3 2 2 2 2 5 1 2 8 3 1 11 4 4 4 4 4 5 9 15 12 24 18 29 24 25 22 16
5 1 4 7 2 1 4 5 1 3 2 4 3 7 6 6 5 4 5 3 2 1 3 1 2 5 11 16 3 8 5 3 1 10 11 15 23 16 14 26 27 24 24 24 25
3 2 3 4 5 4 3 3 3 4 4 4 5 3 2 6 3 6 5 5 6 4 5 3 3 5 9 3 0 4 8 11 11 12 16 13 14 12 29 24 26 26 24 27 23
3 3 1 2 0 4 4 4 4 3 4 2 3 4 4 4 2 5 4 7 2 6 7 5 3 6 7 13 9 14 20 21 10 9 15 19 30 27 27 27 27 28 29 29 27
3 5 4 5 6 6 5 3 4 5 1 3 1 5 7 6 3 5 2 2 1 3 4 3 4 6 9 13 13 15 20 21 17 19 19 27 27 29 27 29 28 28 29 31 33
5 4 1 2 2 7 11 9 13 4 7 3 5 5 6 6 6 6 6 4 4 3 3 1 4 6 10 15 10 16 19 20 18 13 17 22 28 26 29 32 27 30 35 36 36
7 2 3 7 5 6 6 9 14 9 2 5 7 6 4 4 4 3 5 5 4 5 4 3 0 3 6 8 14 6 5 11 17 14 13 20 28 28 29 35 35 34 37 36 32
Wind_Direction
19 15 8 5 4 4 2 1 357 355 356 1 5 3 357 356 35 43 42 12 353 349 351 357 358 5 61 76 73 112 67 254 244 222 254 234 259 259 269 273 241 209 228 242 294
15 9 6 3 1 1 360 359 354 351 353 358 1 5 354 354 80 53 21 5 352 354 6 23 350 360 17 38 29 79 120 225 203 212 251 279 236 277 302 266 261 273 261 250 250
10 6 4 0 358 358 358 356 352 350 348 349 344 343 344 350 81 335 3 353 351 355 9 29 1 53 27 354 15 144 212 232 257 237 244 252 276 209 218 286 239 247 261 236 206
5 2 1 358 355 355 355 354 350 347 344 349 345 334 344 34 81 353 1 359 351 355 33 19 18 45 25 343 337 302 243 242 274 229 287 261 271 259 181 260 258 241 258 272 236
358 358 358 355 352 353 352 351 349 344 344 347 345 354 71 47 84 355 14 359 351 6 44 27 40 35 359 306 313 217 287 289 264 260 243 254 254 245 250 266 286 279 275 264 260
351 353 353 351 349 350 349 350 347 342 337 343 345 5 77 72 348 -0 350 350 8 28 38 40 127 10 244 241 206 263 280 289 295 306 251 186 268 133 270 277 296 302 284 281 255
347 348 349 349 347 347 349 349 341 339 331 340 345 21 56 144 338 330 343 353 0 13 91 89 351 72 2 312 324 313 308 319 304 327 308 205 256 235 258 307 284 274 282 287 270
342 345 346 346 344 345 347 346 337 334 328 340 343 41 127 345 289 338 356 29 355 14 26 87 105 111 98 319 356 343 27 348 298 350 335 25 295 283 254 325 298 294 283 281 287
339 342 342 342 341 342 344 344 333 328 326 338 -0 53 101 350 14 349 1 349 341 15 49 90 75 82 35 42 2 8 307 308 319 325 325 179 296 297 305 269 287 309 308 310 308
336 339 338 339 338 340 344 341 337 326 333 337 37 37 19 337 323 329 342 339 330 322 38 44 44 48 30 52 320 297 309 275 290 297 14 299 286 296 306 312 311 316 315 319 315
333 333 335 338 338 346 352 353 14 349 27 334 298 263 323 321 310 350 348 315 32 54 19 0 32 287 262 193 199 269 261 288 300 303 329 321 301 299 306 309 319 319 328 339 18
328 331 336 340 341 358 11 65 68 281 309 333 261 272 254 329 349 324 341 66 43 338 344 4 295 248 247 233 175 268 295 286 294 302 331 343 292 291 295 304 313 331 14 27 13
326 332 336 343 350 9 62 67 336 189 270 302 246 283 279 74 344 293 1 80 53 343 330 252 260 315 184 279 235 232 241 285 275 320 307 271 288 293 300 313 315 65 61 7 360
323 328 334 351 42 4 57 356 343 177 50 284 288 283 284 209 16 287 27 95 354 296 301 245 296 323 316 297 243 263 140 274 297 340 302 3 288 289 309 308 311 80 29 350 7
318 325 331 359 356 43 339 338 26 216 357 274 285 313 303 -0 323 23 15 32 252 265 84 258 316 311 310 275 196 249 338 298 272 298 297 289 234 294 331 319 6 2 359 37 6
314 318 329 333 5 27 328 336 331 30 261 311 339 357 8 13 8 327 18 34 78 349 280 251 288 236 191 54 96 317 348 315 303 275 279 250 358 293 321 347 7 354 356 4 348
311 308 318 321 358 327 327 14 12 167 334 290 317 23 29 305 343 37 16 26 33 351 337 328 277 98 55 28 350 11 336 325 334 354 271 344 318 295 341 161 313 349 352 340 27
305 301 292 284 325 343 47 44 205 231 239 34 2 316 241 6 355 358 44 21 36 31 292 341 320 23 29 68 337 280 113 185 303 299 290 307 258 247 346 344 346 350 345 339 345
300 286 276 260 307 29 80 129 224 214 207 351 325 265 251 240 348 44 107 112 48 354 40 342 254 334 65 30 29 329 67 185 243 259 279 259 275 308 356 332 335 344 339 336 339
293 301 251 268 209 102 86 230 240 199 136 139 192 202 235 223 6 47 287 20 120 41 297 17 296 55 352 30 37 59 331 10 14 298 277 287 296 300 337 320 334 331 330 324 317
143 12 186 165 135 69 196 224 249 224 167 178 234 253 220 202 172 205 234 41 64 78 49 170 189 282 46 52 305 15 52 15 285 228 278 301 289 0 309 312 330 313 320 316 315
144 251 168 155 98 205 196 208 230 205 189 251 208 214 195 169 191 224 217 79 148 190 96 218 244 270 286 285 150 125 152 142 222 283 281 276 273 289 312 316 311 314 312 315 309
193 239 176 160 211 223 232 241 231 185 216 211 218 190 136 179 205 189 143 175 151 139 150 190 229 315 321 112 163 39 310 290 279 263 268 275 281 314 303 307 310 310 309 308 303
142 239 237 203 234 175 168 223 227 175 233 149 150 118 128 192 342 186 173 212 209 180 207 186 226 216 245 280 306 300 302 300 297 288 286 280 294 302 304 308 311 310 310 304 302
161 229 188 193 220 179 137 147 253 212 246 193 185 203 177 180 188 202 136 24 207 257 164 173 254 246 266 271 275 272 272 279 280 277 278 289 294 298 304 308 311 307 304 304 305
158 163 173 125 95 180 182 199 203 227 182 218 226 193 191 191 197 176 145 174 231 123 129 157 280 312 284 264 260 285 279 278 276 284 289 291 294 305 309 307 312 311 307 305 302
148 115 137 152 168 173 197 193 199 194 227 200 199 139 193 217 170 180 191 181 174 175 166 202 240 18 272 315 316 309 244 312 299 291 275 300 300 309 307 310 313 313 307 303 301